User: anonymous   Login
Location: Columbia
(38.9520°N, 92.3340°W)
Time: 14:17:40
(UTC-05:00)
Language:

Cosmos 158 Rocket - Orbit

View from above orbital plane
View from above orbital plane
View from above satellite
View from above satellite

Ground track
Ground track

The orbit data is extracted from the following two-line orbital elements,

1 02802U 67045B   14304.09329160  .00000332  00000-0  10387-3 0  6027
2 02802 074.0108 153.5923 0065928 078.5384 282.3167 14.43269506490447
Epoch (UTC): 31 October 2014 02:14:20
Eccentricity: 0.0065928
inclination: 74.0108°
perigee height: 701 km
apogee height: 794 km
right ascension of ascending node: 153.5923°
argument of perigee: 78.5384°
revolutions per day: 14.43269506
mean anomaly at epoch: 282.3167°
orbit number at epoch: 49044

The dashed part of the orbit path shows where the satellite is in the earth's shadow,  

DLR